Location: Dackenheim
(49.5215°N, 8.1854°E)
Time: 04:57:26
(UTC+00:00)

JY1SAT - Pass Details

Date: 17 March 2026
Orbit: 466 x 476 km, 97.4° (Epoch: 17 April)

Event Time Altitude Azimuth Distance (km) Brightness Sun altitude
Exits shadow 20:56:40 18° 327° (NNW) 1,241 ? -30.9°
Drops below altitude 10° 20:57:46 10° 335° (NNW) 1,668 ? -31.0°
Sets 20:59:55 0° 342° (NNW) 2,553 ? -31.3°
